Greenville, AL

12:25 AM CDT on July 21, 2017 (GMT -0500)
Greenville Municipal

Weather History for KPRN - November, 2011

Change the Weather History Date:

Monday, November 28, 2011

  Actual Average Record
Temperature  
Mean Temperature 42 °F -  
Max Temperature 46 °F 67 °F 81 °F (1985)
Min Temperature 39 °F 43 °F 23 °F (1936)
Degree Days  
Heating Degree Days 22    
Moisture  
Dew Point 40 °F    
Average Humidity 87    
Maximum Humidity 97    
Minimum Humidity 68    
Precipitation  
Precipitation 0.31 in - - ()
Sea Level Pressure  
Sea Level Pressure 29.88 in    
Wind  
Wind Speed 9 mph (WSW)    
Max Wind Speed 15 mph    
Max Gust Speed 21 mph    
Visibility 9 miles    
Events Rain    
Averages and records for this station are not official NWS values.
T = Trace of Precipitation, MM = Missing Value Source: NWS Daily Summary

Daily Weather History Graph

Daily Weather History Graph

Search for Another Location

Airport or City:

Trip Planner

Search our weather history database for the weather conditions in past years. The results will help you decide how hot, cold, wet, or windy it might be!

Date:

Astronomy

Nov. 28, 2011 Rise Set
Actual Time 6:26 AM CST 4:42 PM CST
Civil Twilight 5:59 AM CST 5:08 PM CST
Nautical Twilight 5:29 AM CST 5:38 PM CST
Astronomical Twilight 5:00 AM CST 6:08 PM CST
Moon 9:36 AM CST (11/28) 8:25 PM CST (11/28)
Length of Visible Light 11h 09m
Length of Day
10h 16m
Waxing Crescent, 16% of the Moon is Illuminated
Nov 28
Waxing Crescent
Dec 2
First Quarter
Dec 10
Full
Dec 17
Last Quarter
Dec 24
New

Hourly Weather History & Observations

Time (CST) Temp. Windchill Dew Point Humidity Pressure Visibility Wind Dir Wind Speed Gust Speed Precip Events Conditions
12:42 AM 46.9 °F - 45.0 °F 93% 29.87 in 10.0 mi West 15.0 mph 20.7 mph 0.04 in Rain Light Rain
12:56 AM 46.9 °F - 45.0 °F 93% 29.86 in 10.0 mi West 10.4 mph - 0.04 in Rain Light Rain
1:42 AM 46.0 °F 43.1 °F 45.0 °F 96% 29.86 in 10.0 mi West 5.8 mph - 0.06 in Rain Light Rain
1:56 AM 46.0 °F 43.1 °F 44.1 °F 93% 29.84 in 5.0 mi WNW 5.8 mph - 0.09 in Rain Rain
2:52 AM 45.0 °F 40.6 °F 43.0 °F 93% 29.85 in 7.0 mi West 8.1 mph - 0.11 in Rain Rain
2:56 AM 45.0 °F 41.2 °F 43.0 °F 93% 29.85 in 8.0 mi West 6.9 mph - 0.11 in Rain Light Rain
3:05 AM 45.0 °F 40.1 °F 43.0 °F 93% 29.85 in 10.0 mi West 9.2 mph - 0.01 in Rain Light Rain
3:24 AM 45.0 °F 41.2 °F 43.0 °F 93% 29.84 in 10.0 mi West 6.9 mph - 0.01 in   Overcast
3:38 AM 44.1 °F 38.6 °F 42.1 °F 93% 29.83 in 10.0 mi West 10.4 mph - 0.01 in Rain Light Rain
3:56 AM 44.1 °F 39.0 °F 42.1 °F 93% 29.84 in 10.0 mi West 9.2 mph 17.3 mph 0.02 in Rain Light Rain
4:17 AM 44.1 °F 38.1 °F 42.1 °F 93% 29.83 in 10.0 mi West 11.5 mph 18.4 mph 0.00 in Rain Light Rain
4:36 AM 44.1 °F 37.7 °F 42.1 °F 93% 29.84 in 10.0 mi West 12.7 mph - 0.01 in   Overcast
4:43 AM 44.1 °F 39.5 °F 41.0 °F 89% 29.84 in 10.0 mi West 8.1 mph - 0.01 in   Overcast
4:56 AM 43.0 °F 37.2 °F 42.1 °F 97% 29.84 in 10.0 mi West 10.4 mph - 0.01 in   Overcast
5:56 AM 43.0 °F 37.7 °F 41.0 °F 93% 29.86 in 7.0 mi WSW 9.2 mph 18.4 mph 0.00 in   Overcast
6:31 AM 42.1 °F 40.2 °F 41.0 °F 96% 29.87 in 5.0 mi West 3.5 mph - 0.02 in Rain Light Rain
6:56 AM 42.1 °F 36.6 °F 39.9 °F 92% 29.87 in 8.0 mi West 9.2 mph - 0.02 in   Overcast
7:04 AM 42.1 °F 37.1 °F 39.9 °F 92% 29.87 in 7.0 mi WSW 8.1 mph - 0.01 in Rain Light Rain
7:56 AM 42.1 °F 37.1 °F 39.9 °F 92% 29.88 in 7.0 mi WSW 8.1 mph - 0.01 in   Overcast
8:05 AM 42.1 °F 35.7 °F 41.0 °F 96% 29.88 in 5.0 mi SW 11.5 mph 17.3 mph N/A   Overcast
8:23 AM 42.1 °F 36.1 °F 39.9 °F 92% 29.89 in 9.0 mi WSW 10.4 mph - N/A   Overcast
8:56 AM 42.1 °F 37.1 °F 39.9 °F 92% 29.90 in 10.0 mi West 8.1 mph - N/A   Overcast
9:26 AM 42.1 °F 36.6 °F 41.0 °F 96% 29.91 in 6.0 mi WSW 9.2 mph - 0.01 in Rain Light Rain
9:56 AM 43.0 °F 36.0 °F 41.0 °F 93% 29.91 in 5.0 mi WSW 13.8 mph 19.6 mph 0.01 in Rain Light Rain
10:15 AM 44.1 °F 39.5 °F 41.0 °F 89% 29.90 in 10.0 mi SW 8.1 mph 16.1 mph 0.00 in Rain Light Rain
10:56 AM 45.0 °F 39.7 °F 41.0 °F 86% 29.89 in 10.0 mi WSW 10.4 mph - 0.00 in   Mostly Cloudy
11:28 AM 45.0 °F 39.7 °F 39.0 °F 80% 29.88 in 10.0 mi WSW 10.4 mph - N/A   Mostly Cloudy
11:45 AM 45.0 °F 39.7 °F 39.0 °F 80% 29.88 in 10.0 mi West 10.4 mph - N/A   Mostly Cloudy
11:56 AM 46.0 °F 41.0 °F 39.9 °F 79% 29.87 in 10.0 mi West 10.4 mph - N/A   Overcast
12:56 PM 46.9 °F - 39.0 °F 74% 29.87 in 10.0 mi SW 9.2 mph 20.7 mph 0.00 in Rain Light Rain
1:56 PM 46.9 °F - 39.0 °F 74% 29.86 in 10.0 mi WSW 11.5 mph - 0.00 in   Mostly Cloudy
2:39 PM 46.0 °F 41.0 °F 37.9 °F 73% 29.86 in 10.0 mi WSW 10.4 mph 19.6 mph 0.00 in Rain Light Rain
2:56 PM 46.9 °F - 37.0 °F 68% 29.86 in 10.0 mi WSW 9.2 mph - 0.00 in   Mostly Cloudy
3:03 PM 46.9 °F - 37.0 °F 68% 29.86 in 10.0 mi West 8.1 mph - N/A   Mostly Cloudy
3:56 PM 45.0 °F 39.7 °F 37.0 °F 74% 29.88 in 10.0 mi WSW 10.4 mph - N/A   Mostly Cloudy
4:56 PM 44.1 °F 40.8 °F 37.0 °F 76% 29.89 in 10.0 mi WSW 5.8 mph - N/A   Scattered Clouds
5:56 PM 43.0 °F 39.5 °F 37.9 °F 82% 29.91 in 10.0 mi WSW 5.8 mph - 0.00 in   Mostly Cloudy
6:56 PM 43.0 °F 38.8 °F 37.9 °F 82% 29.91 in 10.0 mi West 6.9 mph - N/A   Scattered Clouds
7:17 PM 43.0 °F 36.8 °F 37.9 °F 82% 29.91 in 10.0 mi West 11.5 mph - N/A   Mostly Cloudy
7:45 PM 42.1 °F 38.4 °F 37.9 °F 85% 29.91 in 10.0 mi West 5.8 mph - 0.00 in   Mostly Cloudy
7:56 PM 42.1 °F 39.2 °F 37.9 °F 85% 29.92 in 10.0 mi West 4.6 mph - 0.00 in   Overcast
8:29 PM 41.0 °F 38.0 °F 37.9 °F 89% 29.92 in 10.0 mi WSW 4.6 mph - N/A   Overcast
8:56 PM 41.0 °F 37.1 °F 37.9 °F 89% 29.92 in 10.0 mi WSW 5.8 mph - N/A   Overcast
9:56 PM 41.0 °F 36.4 °F 37.0 °F 86% 29.93 in 10.0 mi WSW 6.9 mph - N/A   Mostly Cloudy
10:56 PM 39.9 °F 34.5 °F 36.0 °F 86% 29.94 in 10.0 mi West 8.1 mph - N/A   Mostly Cloudy
11:56 PM 39.9 °F 35.8 °F 35.1 °F 83% 29.94 in 10.0 mi West 5.8 mph - N/A   Mostly Cloudy